Reflectivity
-10 -20 0 -13 -20 -4 -20 -20 -20 -6 -20 -20 -14 -12 -20 -20 -20 -20 -20 -20 -9 -20 -20 -20 -11 -5 16 24 12 21 9 -6 -20 -20 -20 -20 -20 -20 6 -20 -20 -20 -20 -20 -20
-20 -20 -20 -20 -14 -20 -20 -20 -13 -20 -20 -4 2 -20 -20 -20 -20 -20 -17 -20 -20 -20 -3 -20 -20 28 29 30 22 24 18 -20 -20 -20 -20 -20 -20 -20 -20 -20 11 -20 -20 -20 -20
-20 -20 -20 -20 -20 -20 -20 -3 3 -7 -20 -16 -20 -20 -20 -20 -3 -6 -20 -11 -2 -19 -20 -20 -7 6 14 16 22 -10 -17 -20 -20 -20 -20 -20 -20 -20 -20 -20 -20 -20 -18 2 -9
-20 -20 -14 -20 -19 -20 -20 2 0 3 -20 -20 -20 -20 -20 -20 1 -20 -20 -20 -15 16 4 11 -18 -2 21 32 7 19 -20 -6 -20 -20 10 -20 -20 -20 -20 -20 -20 -20 -20 3 -5
-20 -20 -12 -10 -11 -20 -20 -20 -20 -20 -20 -20 -20 -20 7 4 10 -20 -20 -20 -18 23 10 8 11 25 12 10 31 3 -16 -20 -4 -7 19 -12 -20 -20 -20 -20 -20 -20 -20 9 -5
-20 -20 -20 -13 -20 -20 -20 -20 -20 -20 -20 -20 -20 -20 24 -12 -20 -20 -20 -6 -2 -11 6 9 -8 12 23 5 24 15 21 6 -5 -18 15 -8 -20 -20 -20 -20 -20 -20 -20 -16 7
-20 -20 -20 -20 -20 -20 -20 -20 -20 -20 -20 -20 -20 -20 -7 -20 -20 -20 -20 19 -20 29 25 21 -6 7 22 -0 5 21 -8 20 2 -20 11 -12 -20 -20 -20 4 -20 -17 -20 -17 23
-20 -20 -20 -20 -20 -20 -20 -20 -20 -20 -20 -20 9 -14 8 -20 -20 9 -20 17 -20 31 -10 -20 -20 8 4 -10 -8 36 25 15 22 -20 9 -18 12 -20 -20 -20 -20 19 -20 -13 8
-20 -20 -20 -20 -20 -20 -20 -20 -20 -20 -20 -16 -16 -20 8 -20 -20 -9 17 -20 3 24 12 -7 -12 25 31 14 11 17 39 1 -1 -20 1 -12 4 -18 -19 -9 17 -20 -19 11 3
-20 -20 -20 -20 -20 -20 -20 -20 -20 -20 -20 -20 -5 -20 -20 -20 -20 -20 10 -3 20 22 -14 9 27 18 33 8 13 25 32 31 -20 -20 -20 -15 -8 -20 -20 -20 -1 -18 -3 -10 15
-20 -20 -20 -20 -20 -20 -20 -20 -20 -20 -20 -8 -13 -2 1 -20 -20 -10 -20 -17 28 15 31 26 13 14 24 0 35 35 26 15 -13 -20 -20 -20 -20 -20 -20 -20 -20 13 -20 -20 2
-20 -20 -20 -20 -20 -20 -20 -20 -20 -20 -17 -20 -20 -20 -20 -20 -16 -16 -20 -20 -16 17 41 28 2 14 27 -7 29 28 37 37 -4 -20 -20 -12 30 -20 -20 7 -20 -20 -4 11 11
-20 -20 -20 -20 -20 -20 -20 -20 -20 -20 -18 -20 -16 -11 -20 -20 -13 1 -20 -20 -11 18 35 -12 -11 12 8 23 11 22 17 33 9 -0 -20 -13 19 27 5 10 -9 4 -20 -19 -20
-20 -20 -20 -20 -20 -20 -20 -20 -20 -20 16 -18 -20 -20 -14 -20 -1 -20 -20 -9 -2 15 -11 -18 -20 -20 -11 14 -0 27 27 19 -1 9 -13 -13 -20 27 32 10 13 -20 -20 -20 -16
-20 -20 -20 -20 -20 -20 -20 -20 -20 -20 -20 -20 -20 -20 -20 -11 15 22 13 -19 -9 -13 -18 -7 2 -20 -12 2 -10 10 18 12 9 6 -20 -20 21 20 -20 22 3 26 -20 -20 -20
-20 -20 -20 -20 -20 -20 -20 -20 -20 -20 -20 -20 -20 -20 -20 -10 17 10 10 -6 -2 -4 -7 -10 -2 -8 -20 -13 -18 -11 11 5 11 18 -9 -20 2 15 -20 -20 -20 -20 -20 -20 -20
-20 -20 -20 -20 -20 -20 -20 -20 -20 -20 -20 -20 -20 -20 -20 -20 -20 -20 0 -18 -18 -5 -20 -20 -11 -7 -20 -2 29 -20 17 22 15 12 -4 -20 21 18 -20 -20 -20 -20 -20 -20 -20
-20 -20 -20 -20 -20 -20 -20 -20 -20 -20 -20 -20 -20 -20 -20 -20 -20 -20 -20 -20 -20 -20 -20 -20 -13 -20 -20 -20 -9 3 10 -20 -5 5 -20 -20 -20 -20 -20 -20 -20 -20 -20 -20 -20
-20 -20 -20 -20 -20 -20 -20 -20 -20 -20 -20 -20 -20 -20 -20 -20 -20 -20 -20 -20 -20 -20 3 -18 -11 -20 -20 -20 -6 -13 -15 1 -20 11 -20 -20 -20 -20 -20 -20 -20 -20 -20 -20 -8
-20 -20 -20 -20 -20 -18 -20 -20 -20 -20 -20 -20 -20 -20 -20 -20 -20 -20 -20 -20 -20 -20 -20 -20 -20 -20 -20 -20 -20 -20 -20 -20 -20 -12 -20 -20 -20 -20 -20 -20 -20 -20 -20 -20 -20
-20 -20 -20 -20 2 -8 -19 -20 -20 -20 -20 -20 -20 -20 -20 -20 -20 -20 -20 -20 -20 -20 -20 -20 -20 -20 -20 -20 -20 -20 -20 -20 -20 -20 -20 -20 -20 -20 -20 -20 -20 -20 -20 -20 -20
-20 -20 -20 -20 -20 -1 -19 -12 -20 -20 -20 -20 -20 -20 -20 -20 -20 -20 -20 -20 -20 -20 -20 -20 -20 -20 -20 -20 -20 -20 -20 -20 -20 -20 -20 -20 -20 -20 -20 -20 -20 -20 -20 -20 -20
-20 -20 -20 -20 -20 -20 -20 -20 -12 4 -12 -20 -20 -20 -20 -20 -20 -20 -20 -20 -20 -20 -20 -20 -20 -20 -20 -20 -20 -20 -20 -20 -20 -20 -20 -20 -20 -20 -20 -20 -20 -20 -20 -20 -20
-20 -19 -19 -20 -20 -20 -20 -20 -20 -12 -4 -1 -16 -20 -20 -20 -20 -20 -20 -20 -20 -20 -20 -12 -20 -20 -20 -20 -20 -20 -20 -20 -20 -20 -20 -20 -20 -20 -20 -20 -20 -20 -20 -20 -20
-20 -20 -20 -7 -20 -20 -20 -18 -8 -17 -13 -9 -7 -13 -20 -20 -20 -20 -20 -20 -20 -20 -20 -20 -20 -20 -20 -20 -20 -20 -20 -20 -20 -20 -20 -20 -20 -20 -20 -20 -20 -20 -20 -20 -20
-3 -14 -20 -11 -20 -20 -20 -20 -20 -20 -20 -20 -20 -20 -20 -20 -20 -20 -20 -20 -20 -20 -20 -20 -20 -20 -20 -20 -20 -20 -20 -20 -20 -20 -20 -20 -20 -20 -20 -20 -20 -20 -20 -20 -20
-20 -20 -16 -20 -20 -20 -20 -20 -20 -20 -20 -20 -20 -20 -20 -20 -20 -20 -20 -20 -20 -20 -20 -20 -20 -20 -20 -20 -20 -20 -20 -20 -20 -20 -20 -20 -20 -20 -20 -20 -20 -20 -20 -20 -20
Wind_Speed
14 13 13 12 12 10 9 9 9 10 11 12 13 11 10 8 8 8 11 9 13 12 11 12 12 8 3 6 8 7 6 15 19 20 18 11 9 7 6 13 8 7 6 18 16
12 13 12 13 13 11 10 10 10 10 11 12 9 8 5 4 8 9 6 9 9 14 14 14 13 9 6 8 8 9 9 14 14 12 12 11 10 8 7 13 9 17 18 19 16
13 12 12 11 11 11 11 10 10 11 10 9 5 5 4 5 6 2 9 12 10 16 15 14 6 2 9 5 9 13 14 13 16 15 12 13 9 6 7 8 11 20 19 17 16
12 11 11 10 11 10 11 11 10 10 10 5 3 5 2 5 1 5 7 10 11 10 12 10 4 4 4 8 4 10 12 17 15 18 11 17 11 9 9 8 15 23 19 17 16
12 11 10 10 9 10 10 9 9 8 8 7 3 4 6 4 5 3 7 6 5 4 10 13 6 8 4 6 2 14 14 17 17 8 8 17 12 11 8 5 19 24 19 16 14
12 11 10 9 10 9 10 9 8 8 8 5 5 6 7 4 6 2 6 3 4 4 9 13 5 2 4 2 12 7 16 19 5 13 6 16 10 12 5 15 22 21 17 15 16
12 11 9 9 9 8 8 8 8 9 6 4 5 7 7 5 6 5 8 2 1 2 4 1 5 5 8 3 4 9 11 8 9 11 4 11 8 9 9 18 19 18 15 12 15
12 11 9 8 8 6 7 7 6 5 5 3 5 7 2 1 5 9 8 3 3 3 4 4 7 5 5 6 4 1 9 11 10 8 8 9 10 12 12 17 15 17 15 13 10
12 11 10 7 4 7 2 2 2 3 1 2 4 6 2 1 13 10 7 7 2 5 4 7 5 2 3 10 5 2 6 16 14 12 9 7 14 10 10 15 14 15 14 13 11
12 11 8 6 5 1 4 3 4 3 6 5 7 2 9 12 14 10 5 7 1 6 2 7 4 4 2 4 6 5 4 13 15 17 8 10 13 14 10 14 13 13 15 12 11
11 12 7 4 2 2 5 3 4 3 11 4 3 5 8 13 5 9 9 6 5 3 3 3 7 7 4 10 2 9 2 18 16 12 11 11 14 12 10 12 15 14 15 14 12
12 11 5 4 1 0 4 4 4 2 5 7 5 5 3 7 4 9 13 4 3 5 10 6 11 10 7 7 3 14 13 12 11 15 8 9 11 11 3 13 15 16 16 15 12
12 9 5 5 2 3 2 4 2 1 1 3 3 2 4 7 5 6 9 5 3 5 3 10 9 10 6 7 10 6 19 16 13 9 5 13 5 7 4 4 13 11 12 13 15
12 7 4 5 3 2 2 2 2 2 1 10 6 2 1 5 3 3 4 3 3 8 9 11 4 8 7 9 7 9 13 15 13 8 6 10 5 7 10 9 12 14 14 14 14
10 5 6 3 3 1 4 1 1 2 6 9 7 1 1 4 6 2 2 4 7 5 2 5 7 4 8 4 6 4 5 7 9 8 7 7 7 6 12 8 10 14 13 13 15
6 8 1 3 3 3 1 1 0 1 6 4 5 5 5 4 3 4 2 4 7 12 14 6 5 5 2 7 2 4 3 11 7 3 3 7 8 6 9 13 13 12 11 12 14
5 8 4 2 2 1 2 2 2 7 3 7 5 8 7 5 6 1 4 5 4 5 4 5 4 5 4 10 2 5 8 2 5 4 4 6 5 7 10 13 19 18 17 16 16
8 2 1 3 2 4 2 2 9 2 2 4 4 10 1 7 3 6 2 4 7 8 3 4 3 1 1 4 10 15 9 5 5 7 5 6 7 6 3 6 17 16 19 17 16
4 3 2 2 4 2 2 6 1 2 3 3 7 4 2 3 4 7 5 4 5 8 2 4 3 5 6 3 7 12 11 4 5 4 5 5 1 3 3 4 5 13 13 11 9
3 2 2 5 4 2 4 3 0 2 2 2 1 2 3 7 6 8 6 2 4 1 4 6 4 5 2 4 5 4 5 3 1 5 5 7 7 6 7 8 7 10 15 11 8
3 3 1 6 4 3 4 3 2 3 0 0 2 1 2 1 1 1 3 1 3 4 5 5 2 3 1 5 6 1 2 2 4 5 7 6 7 10 15 14 14 10 14 11 9
2 3 1 4 3 3 3 2 1 3 2 1 2 1 3 1 3 2 3 2 4 3 4 4 3 4 7 1 3 3 4 7 4 4 2 4 6 4 7 15 18 16 8 9 9
1 2 1 1 3 2 3 3 1 4 4 4 4 2 2 3 3 4 5 2 2 2 1 5 4 4 3 2 4 4 5 5 6 3 6 6 6 3 6 9 12 12 11 8 8
3 3 4 5 4 2 3 3 4 2 2 2 2 3 4 5 5 2 4 1 2 3 3 3 4 3 7 3 7 7 8 6 3 4 3 8 2 1 5 5 7 8 8 8 7
3 1 1 3 3 3 3 1 1 3 3 4 4 4 3 3 4 4 2 3 4 2 1 2 3 5 6 1 4 3 8 9 10 7 7 3 6 7 10 12 12 8 8 9 8
1 3 2 2 1 2 1 5 5 2 3 2 2 2 1 3 1 2 1 2 3 6 3 5 1 6 5 5 3 6 8 9 15 11 11 9 15 7 2 8 10 11 11 11 10
1 2 2 4 3 1 3 2 4 4 4 1 1 1 4 2 2 3 2 2 2 1 3 2 1 1 4 7 6 7 11 11 6 9 12 10 12 7 5 8 11 11 10 8 8
Wind_Direction
340 334 336 334 331 337 323 312 316 309 314 311 313 316 306 280 268 251 244 267 279 318 323 277 286 199 259 229 225 219 233 215 210 198 189 211 148 177 50 102 84 58 137 125 137
339 332 344 337 335 334 329 319 324 317 316 313 317 319 319 287 246 244 350 324 312 317 283 269 267 219 199 203 202 203 219 225 214 197 188 177 155 133 114 109 101 87 91 116 130
339 339 343 338 334 329 323 319 318 317 316 320 328 311 310 278 246 8 349 322 309 301 239 249 283 30 198 268 189 199 219 229 229 232 193 149 164 125 164 146 147 133 134 135 141
339 341 341 337 334 336 323 321 321 321 320 330 324 336 233 223 169 43 350 329 328 300 209 195 218 282 212 202 290 180 245 217 244 232 201 161 147 161 218 161 153 135 141 144 146
341 345 346 338 331 326 329 329 323 326 324 312 270 277 278 201 38 51 346 345 344 352 216 185 178 200 237 184 117 242 200 242 250 274 187 137 171 159 204 118 122 128 141 153 149
342 345 349 338 329 332 335 326 326 324 319 312 254 289 261 45 320 336 324 350 17 13 255 200 183 163 275 194 142 241 183 219 235 271 189 151 181 138 145 118 120 133 137 160 154
346 348 342 329 331 330 343 331 324 324 328 300 229 284 17 25 344 340 306 12 183 223 168 157 111 73 341 139 170 268 211 202 244 238 262 164 162 152 162 124 132 135 140 161 160
345 348 341 327 335 344 336 322 308 337 350 271 228 297 70 325 326 345 343 3 197 218 59 91 85 53 295 120 114 226 250 164 214 194 252 164 176 138 151 134 145 130 150 159 171
345 349 337 328 357 334 336 271 264 73 21 258 270 335 14 321 351 355 351 328 155 100 47 132 93 161 241 139 79 33 169 185 179 195 208 136 151 153 154 151 138 132 155 152 153
351 352 346 348 357 337 131 237 130 13 337 43 0 289 39 344 324 331 342 328 332 123 114 53 197 115 274 124 174 140 217 217 160 183 172 172 163 150 162 142 136 142 160 149 157
355 353 346 13 19 189 138 145 193 158 48 52 347 344 356 332 287 351 350 316 33 236 141 222 139 100 91 185 115 131 173 183 168 175 160 195 143 161 155 125 127 162 163 156 157
359 354 348 52 82 172 282 297 47 48 99 50 25 18 26 318 278 2 343 9 323 243 160 139 98 121 103 106 122 166 207 242 164 169 150 167 157 147 178 159 155 161 167 160 152
359 1 350 202 299 264 342 61 354 311 336 67 47 341 325 324 337 350 343 342 346 292 101 100 110 102 69 114 175 186 185 208 162 159 201 134 175 154 202 229 148 154 166 165 164
357 13 30 166 245 180 88 101 282 305 236 355 358 24 59 319 340 15 329 343 269 117 106 73 114 88 97 134 171 151 211 219 146 155 163 125 195 214 168 195 153 153 166 167 169
9 5 63 171 119 225 75 176 310 248 44 329 319 114 34 54 318 67 255 296 288 299 142 118 131 78 113 142 230 215 180 176 156 169 98 164 66 191 160 189 166 162 181 174 173
55 22 286 270 77 55 140 221 305 305 23 354 283 344 42 36 358 263 216 198 279 74 76 106 133 176 146 108 2 320 352 126 39 28 137 189 148 188 175 182 182 171 185 178 171
137 37 55 12 49 157 200 206 72 57 352 325 326 351 7 325 322 82 21 64 22 103 62 118 56 125 195 118 165 8 165 96 67 15 228 230 203 217 179 184 184 174 185 184 178
182 236 291 96 153 169 204 237 67 163 247 348 309 308 56 355 310 339 33 45 30 22 104 61 38 275 240 150 148 177 185 143 138 173 192 166 201 228 72 65 186 184 179 180 176
150 218 156 94 170 151 238 49 98 123 111 326 294 288 101 46 14 333 46 39 34 9 53 99 101 228 289 343 164 178 210 248 123 181 94 204 109 336 65 92 91 159 166 172 176
277 216 97 122 164 150 60 105 80 32 101 195 30 349 342 349 11 15 358 15 329 328 335 319 100 227 235 302 261 191 180 55 38 138 171 200 208 211 188 187 179 176 173 154 124
275 273 157 146 165 52 80 64 113 111 176 277 26 252 280 271 49 12 304 107 47 305 307 286 222 247 132 233 188 183 228 220 190 168 170 147 239 197 191 183 182 190 178 143 135
269 304 243 158 59 39 95 115 231 140 145 167 308 228 273 174 289 285 263 194 44 315 336 13 282 159 203 45 12 317 270 199 143 231 249 148 261 18 152 181 175 181 146 127 119
12 275 285 66 93 104 156 129 202 180 162 175 194 211 182 268 260 228 245 79 24 119 35 353 248 122 173 292 180 234 262 272 307 313 219 138 251 41 40 47 168 145 123 115 115
39 8 354 44 18 43 141 156 164 184 170 194 197 158 195 219 216 245 224 189 0 353 329 282 279 239 192 222 176 199 201 258 221 267 219 223 29 192 144 128 97 107 117 129 142
44 332 254 355 19 13 2 61 144 207 234 203 194 220 184 196 190 210 153 217 192 346 267 310 254 347 307 60 347 291 202 204 220 231 237 253 255 209 184 179 176 154 146 151 163
340 131 211 112 140 11 276 218 197 152 171 232 228 143 184 194 188 148 62 48 29 332 9 332 300 351 292 237 225 267 274 235 221 229 249 242 272 143 91 126 150 166 166 172 176
359 6 110 132 148 136 231 202 219 128 184 311 19 213 204 264 73 52 1 326 313 355 337 343 269 146 261 12 15 290 213 231 242 225 219 217 230 155 159 173 175 167 172 178 172